{"data":{"norad_id":69420,"intl_designator":"2026-126A","name":"STARLINK-37537","alt_names":[],"object_type":"PAYLOAD","status":"ACTIVE","operator":null,"country":"US","launch_date":"2026-06-07","launch_site_code":"AFWTR","launch_vehicle":null,"mission":null,"orbit_class":"UNKNOWN","rcs_meters":null,"size_class":null,"mass_kg":null,"dimensions":null,"purposes":["comms"],"wikipedia_slug":null,"has_3d_model":false,"image_url":null,"decayed_at":null,"tle_current":{"epoch":"2026-09-19T08:56:50.928288Z","epoch_age_seconds":126491,"freshness":"FRESH","line1":"1 69420U 26126A   26262.37281167  .00012049  00000+0  37494-3 0  9996","line2":"2 69420  97.2861 123.6526 0002416  91.6232 268.5287 15.33443408 17356","mean_motion":15.33443408,"eccentricity":0.0002416,"inclination_deg":97.2861,"raan_deg":123.6526,"arg_perigee_deg":91.6232,"mean_anomaly_deg":268.5287,"bstar":0.00037494,"rev_number":1735,"period_min":93.906302148974,"perigee_km":463.89447687963,"apogee_km":467.2013454287,"semimajor_km":6843.6849111542,"source":"CELESTRAK","updated_at":"2026-09-20T09:00:44.194004Z"}}}